Location: Hurstbourne Priors
(51.2000°N, 1.3667°W)
Time: 17:28:27
(UTC+00:00)

Vanguard 3 - Pass Details

Date: 28 April 2021
Orbit: 507 x 3262 km, 33.4° (Epoch: 16 May)

Event Time Altitude Azimuth Distance (km) Brightness Sun altitude
Rises 00:31:25 0° 238° (WSW) 4,607 - -24.3°
Reaches altitude 10° 00:36:40 10° 217° (SW) 3,011 - -24.2°
Maximum altitude 00:40:02 14° 188° (S) 2,351 - -24.1°
Drops below altitude 10° 00:42:46 10° 158° (SSE) 2,336 - -24.1°
Sets 00:45:57 0° 131° (SE) 2,957 - -24.0°
